Location: Guilderland
(42.7045°N, 73.9115°W)
Time: 04:49:59
(UTC+00:00)

COSMO-SKYMED 1 - Pass Details

Date: 24 January 2020
Orbit: 621 x 623 km, 97.9° (Epoch: 18 February)

Event Time Altitude Azimuth Distance (km) Brightness Sun altitude
Rises 23:01:25 0° 13° (NNE) 2,911 5.7 -11.7°
Reaches altitude 10° 23:03:37 10° 14° (NNE) 2,000 4.9 -12.1°
Maximum altitude 23:07:59 84° 103° (ESE) 631 2.5 -12.9°
Drops below altitude 10° 23:12:19 10° 192° (SSW) 1,984 5.5 -13.7°
Sets 23:14:29 0° 193° (SSW) 2,885 6.4 -14.1°
